Location: North Evanston
(42.0634°N, 87.6976°W)
Time: 20:41:36
(UTC+00:00)

Vanguard 3 - Pass Details

Date: 17 May 2026
Orbit: 507 x 3205 km, 33.4° (Epoch: 31 May)

Event Time Altitude Azimuth Distance (km) Brightness Sun altitude
Rises 02:07:43 0° 279° (W) 6,768 13.0 -10.5°
Reaches altitude 10° 02:14:49 10° 264° (W) 5,302 11.9 -11.5°
Maximum altitude 02:22:53 17° 231° (SW) 4,053 10.8 -12.6°
Drops below altitude 10° 02:29:11 10° 195° (SSW) 3,953 10.4 -13.5°
Enters shadow 02:32:37 - 178° (S) 4,343 10.5 -14.0°
Sets 02:33:19 0° 175° (S) 4,457 - -14.1°
